TIME,DELAY(SENSOR),PRES,T(CTD),SAL,OXYGEN,RAWTEMP,T(OPTODE),TCPHASE,FLUOR,BETA(BETA700),BETA(BETA412),BETA(BETA440),CDOM,C(CSC),ED(ED412.40),ED(ED444.00),ED(ED489.70),ED(ED554.30),LU(LU411.80),LU(LU443.40),LU(LU489.60),LU(LU554.10),COMP,TILTX,TILTX(TILTY),CHECK
1340659596,5808,496.6400146484375000,6.7287998199462890,34.2050018310546900,58.5611495971679700,596.2568969726562000,6.7051157951354980,51.5582008361816400,52,105,89,79,81,15367,2147750820,2147423341,2148005065,2147872804,2147628635,2147075456,2148245467,2147202852,1795,4,13,15849
1340659732,5808,485.1000061035156000,6.7158999443054200,34.1750984191894500,68.3524932861328100,595.6680297851562000,6.7241191864013670,50.2665214538574200,51,108,89,80,81,15368,2147750674,2147424393,2148003456,2147872896,2147627885,2147080100,2148245202,2147206006,1168,4,13,36919
1340659859,5807,474.7799987792969000,6.8930001258850100,34.1584014892578100,75.9692764282226600,591.1710205078125000,6.8691058158874510,49.2608909606933600,52,104,89,81,80,15368,2147747446,2147421613,2148001856,2147872310,2147626806,2147078683,2148243894,2147201069,795,4,13,21798
1340660013,5806,463.7399902343750000,7.0409998893737790,34.1524009704589840,80.5822219848632800,586.6666870117188000,7.0141429901123050,48.6439895629882800,50,106,90,79,80,15370,2147751862,2147419510,2148005193,2147873106,2147629769,2147078080,2148241033,2147202258,3124,4,13,8750
1340660176,5804,453.5100097656250000,7.1069998741149900,34.1375999450683600,89.9676589965820300,584.3350830078125000,7.0891461372375490,47.5366592407226560,51,106,90,81,80,15373,2147748032,2147421714,2148002788,2147873042,2147629686,2147082880,2148238299,2147200484,2179,4,13,16756
1340660337,5813,441.8200073242187500,7.2413997650146480,34.1254005432128900,99.3999481201171900,579.4663085937500000,7.2456049919128420,46.4348106384277340,51,106,88,81,79,15364,2147749613,2147420379,2148004160,2147873773,2147628873,2147079981,2148242276,2147201115,2647,4,13,61942
1340660476,5808,430.5799865722656000,7.5138998031616210,34.1147003173828100,109.6844024658203100,571.4777832031250000,7.5018601417541500,45.2465591430664060,51,107,91,81,79,15366,2147749394,2147418944,2148002057,2147874541,2147625508,2147079469,2148238418,2147203675,2887,4,13,56008
1340660601,5809,418.5899963378906000,7.7232999801635740,34.1136016845703100,118.3482971191406200,564.7003784179688000,7.7188191413879395,44.2850799560546900,51,107,91,80,78,15364,2147747584,2147423661,2147999296,2147876470,2147625243,2147082944,2148237257,2147203684,2751,4,13,9804
1340660704,5808,406.7099914550781000,7.9587001800537110,34.1077003479003900,126.4732971191406200,557.0402832031250000,7.9635620117187500,43.3944015502929700,50,107,89,81,77,15364,2147749129,2147424192,2147997824,2147872521,2147626066,2147084342,2148237796,2147204086,120,4,12,32428
1340660795,5807,395.8200073242187500,8.1590995788574220,34.1059989929199200,135.5827026367187500,550.8281250000000000,8.1616821289062500,42.4700202941894500,50,105,84,80,76,15367,2147745572,2147417764,2148000868,2147875172,2147619876,2147086171,2148240502,2147203849,3073,4,13,43079
1340660914,5808,382.9100036621094000,8.5232000350952150,34.1012001037597660,145.8934020996093800,540.1201171875000000,8.5024356842041020,41.4068984985351560,50,106,91,81,77,15369,2147745280,2147419538,2148001910,2147872137,2147622976,2147088365,2148232914,2147202550,105,4,13,55859
1340661029,5807,372.6499938964844000,8.7160997390747070,34.1091003417968750,155.0148010253906200,533.8709106445312000,8.7008714675903320,40.5598793029785160,50,105,93,81,76,15367,2147745216,2147422820,2148003666,2147873581,2147618614,2147095990,2148237110,2147204489,3352,4,13,13436
1340661158,5806,362.0400085449219000,8.9614000320434570,34.1092987060546900,161.8750000000000000,525.8919067382812000,8.9537935256958000,39.8881301879882800,50,110,88,81,76,15365,2147742848,2147421065,2148002130,2147871579,2147614948,2147088621,2148228342,2147202066,3555,4,13,7859
1340661309,5810,350.7399902343750000,9.2302999496459960,34.1213989257812500,167.8616943359375000,517.5031127929688000,9.2191848754882810,39.2949409484863300,50,106,88,81,74,15366,2147740059,2147420745,2148003995,2147871360,2147614262,2147095442,2148232758,2147204397,854,4,14,62800
1340661493,5806,336.2600097656250000,9.7103004455566400,34.1293983459472660,178.5941009521484400,501.1463012695312500,9.7351646423339840,38.2467918395996100,50,109,89,82,74,15362,2147741412,2147422976,2148008393,2147873536,2147617874,2147097216,2148230985,2147205988,176,4,13,11617
1340661605,5810,324.5700073242187500,10.3524999618530270,34.1473999023437500,181.5552062988281200,479.9678039550781000,10.4004898071289060,37.6834297180175800,50,110,87,81,72,15357,2147741805,2147428068,2148012041,2147872246,2147612461,2147106587,2148227529,2147205696,3038,4,13,60757
1340661708,5809,313.3500061035156000,10.7697000503540040,34.1652984619140600,184.0379028320312500,468.4845886230469000,10.7600097656250000,37.3236007690429700,50,110,91,80,72,15358,2147738514,2147424749,2148019538,2147875126,2147609746,2147111533,2148231369,2147205284,416,4,13,4282
1340661826,5807,301.9400024414062500,11.0921001434326170,34.1794013977050800,188.0550994873047000,457.8088073730469000,11.0935201644897460,36.8795509338378900,48,107,91,81,72,15360,2147736923,2147427739,2148028160,2147874075,2147606582,2147112237,2148233179,2147207625,1132,4,13,33244
1340661989,5810,291.2300109863281000,11.4069995880126950,34.1921005249023440,191.3728027343750000,448.5958862304687500,11.3808002471923830,36.5131301879882800,49,108,92,82,71,15360,2147733924,2147431881,2148038482,2147876763,2147606765,2147117760,2148234733,2147207762,627,4,14,61904
1340662169,5811,280.2000122070312500,11.9107999801635740,34.2137985229492200,194.8177947998047000,431.9883117675781000,11.8974504470825200,36.0234794616699200,48,108,92,81,70,15357,2147729645,2147436946,2148054272,2147873536,2147606363,2147122194,2148237979,2147213266,1752,3,13,17994
1340662344,5806,269.4700012207031000,12.9090995788574220,34.2822990417480500,205.5856018066406200,399.5143127441406000,12.9036703109741210,34.8507499694824200,49,111,87,80,70,15362,2147731501,2147442240,2148074093,2147872941,2147598738,2147134180,2148249270,2147208548,3514,3,14,43249
1340662503,5807,257.2300109863281000,13.5148000717163090,34.3316001892089840,212.9965057373047000,380.0112915039062500,13.5057001113891600,34.1213798522949200,48,107,91,81,70,15360,2147730331,2147457280,2148111716,2147874688,2147595968,2147144274,2148259227,2147216064,3186,3,14,39717
1340662630,5810,246.0099945068359400,14.6444997787475590,34.4221000671386700,209.8596038818359400,343.9556884765625000,14.6149501800537110,33.7543182373046900,48,106,91,80,69,15359,2147730496,2147474102,2148154880,2147874413,2147593316,2147160694,2148280192,2147216219,3479,3,13,31105
1340662759,5810,235.3000030517578000,15.4411001205444340,34.5068016052246100,210.7326049804687500,317.6994934082031000,15.4202404022216800,33.3156814575195300,49,107,88,81,68,15356,2147731830,2147502784,2148225645,2147872868,2147588342,2147180233,2148309659,2147215862,2662,3,15,47996
1340662886,5808,224.8300018310547000,15.6548995971679690,34.5360984802246100,211.4983062744140600,308.6989135742187500,15.6959199905395500,33.1408500671386700,50,108,91,80,68,15353,2147735515,2147538258,2148308736,2147873801,2147588324,2147210130,2148345984,2147222573,2351,3,14,32974
1340663015,5809,214.0099945068359400,16.4682998657226560,34.6318016052246100,212.4114990234375000,283.4796142578125000,16.4675102233886720,32.7254791259765600,50,106,89,81,69,15354,2147727872,2147495926,2148166720,2147875620,2147581403,2147192173,2148273060,2147216493,515,3,14,15441
1340663166,5807,202.6399993896484400,16.9428005218505860,34.6846008300781250,212.7819976806640600,267.8021850585937500,16.9466991424560550,32.4812507629394500,50,109,89,81,66,15347,2147768374,2147710281,2148658020,2147874660,2147596534,2147315867,2148510308,2147234112,539,3,14,9797
1340663233,5808,197.8300018310547000,17.4535007476806640,34.7402992248535160,211.6941986083984400,253.3139038085937500,17.3893203735351560,32.3361091613769500,53,109,88,80,66,15342,2147784996,2147761307,2148747117,2147873929,2147601673,2147343670,2148555410,2147239588,1422,4,14,58404
1340663288,5807,194.1699981689453000,17.7833003997802730,34.7822990417480500,211.5139007568359400,240.8999023437500000,17.7684707641601560,32.1718292236328100,55,107,88,81,67,15345,2147802285,2147832758,2148885092,2147876681,2147607862,2147385609,2148618660,2147243035,2327,3,15,39378
1340663363,5807,189.4900054931640600,18.1629009246826170,34.8235015869140600,211.3273925781250000,229.6210021972656200,18.1129093170166000,32.0246810913085940,56,113,91,80,66,15342,2147823908,2147882596,2148974829,2147878180,2147612050,2147418130,2148660480,2147244205,2675,3,15,36941
1340663442,5806,185.6100006103515600,18.5377998352050780,34.8616981506347660,210.8800964355468800,216.5805969238281200,18.5111408233642580,31.8686695098876950,59,110,89,81,65,15339,2147846034,2147954139,2149091154,2147874313,2147621037,2147460489,2148709705,2147251236,35,3,15,34691
1340663533,5808,181.7299957275390600,18.8603000640869140,34.8955001831054700,210.6145019531250000,205.7357940673828000,18.8423690795898440,31.7338008880615230,63,108,88,81,66,15336,2147879780,2148039588,2149238601,2147877147,2147632045,2147506642,2148774857,2147253568,35,3,15,5702
1340663650,5808,177.8099975585937500,19.2444992065429700,34.9471015930175800,210.9319000244140600,193.2498016357422000,19.2238101959228500,31.5456104278564450,72,113,90,81,65,15330,2147915629,2148129664,2149389248,2147876672,2147643328,2147553819,2148834889,2147259062,2876,2,15,15250
1340663789,5805,174.3000030517578000,19.6341991424560550,34.9944992065429700,210.9734954833984400,180.9756927490234400,19.5989208221435550,31.3763103485107420,80,116,87,83,66,15322,2147962386,2148236653,2149563446,2147878372,2147660059,2147604763,2148905846,2147268288,3574,3,15,54454
1340663972,5807,169.6199951171875000,19.8610992431640620,35.0279998779296900,212.2590026855468800,172.6356964111328000,19.8539009094238280,31.1940097808837900,85,118,90,81,65,15310,2148048329,2148422802,2149858011,2147884233,2147689435,2147686802,2149005440,2147278308,1279,2,16,29316
1340664063,5810,165.9499969482422000,19.9885997772216800,35.0391006469726560,213.2555999755859400,168.7445068359375000,19.9729099273681640,31.0879192352294920,86,120,91,83,64,15308,2148066624,2148415826,2149771657,2147882669,2147697142,2147693485,2148981650,2147274752,983,2,15,61735
1340664178,5807,161.8899993896484400,20.5713005065917970,35.1012992858886700,213.0588073730468800,153.1697998046875000,20.4494705200195300,30.8897705078125000,97,124,91,82,64,15294,2148271314,2148873353,2150564379,2147885028,2147771200,2147901760,2149303798,2147301696,2490,2,15,23364
1340664304,5809,157.7799987792968800,20.7427997589111330,35.1231994628906250,215.6927947998047000,144.2763061523437500,20.7217998504638670,30.6320590972900400,96,123,92,82,64,15290,2148459382,2149201728,2151040576,2147886427,2147836534,2148042157,2149478016,2147315821,1599,2,15,64320
1340664395,5809,153.2500000000000000,21.2973003387451170,35.1745986938476560,217.4851074218750000,126.4889984130859400,21.2670192718505860,30.3042106628417970,109,127,92,83,63,15268,2148688530,2149603739,2151625618,2147891995,2147921892,2148211392,2149687744,2147332699,460,2,15,52670
1340664474,5807,149.5000000000000000,21.3929004669189450,35.1897010803222660,221.2823028564453000,122.6921005249023400,21.3835105895996100,30.0603694915771500,115,126,92,84,63,15262,2148986240,2150158765,2152441097,2147901366,2148033664,2148460745,2150004589,2147361691,2730,2,16,35500
1340664553,5808,145.7400054931640600,21.6142005920410160,35.2066001892089840,223.0189056396484400,115.8706970214843800,21.5928802490234380,29.8842792510986330,127,127,92,82,62,15252,2149331922,2150770651,2153314925,2147905984,2148166875,2148727707,2150345746,2147386441,1735,2,16,17625
1340664671,5810,142.3300018310547000,22.0340003967285160,35.2364997863769500,225.3793029785156200,102.4580993652343800,22.0049705505371100,29.5937099456787100,137,127,92,84,63,15243,2149644150,2151247570,2153892708,2147915739,2148283254,2148912064,2150542966,2147408786,568,2,15,42837
1340665025,5810,137.5299987792968800,22.3022003173828120,35.2606010437011700,230.6414031982422000,93.1195983886718800,22.2922306060791000,29.2189903259277340,145,125,91,84,62,15215,2150718857,2152930194,2155896393,2147933028,2148681673,2149510564,2151176923,2147470509,1971,2,16,29181
1340665104,5810,133.4299926757812500,22.4001007080078120,35.2571983337402340,231.7702941894531200,89.9151382446289000,22.3908805847167970,29.1241893768310550,150,124,90,83,63,15222,2151003428,2153221257,2155987017,2147941193,2148794980,2149612909,2151203474,2147478016,1860,2,16,60701
1340665183,5808,129.2200012207031200,22.5135002136230470,35.2654991149902340,232.6717987060547000,86.3558273315429700,22.5004806518554700,29.0363006591796880,142,124,90,83,60,15226,2152610980,2155815963,2159337746,2147982829,2149380891,2150621531,2152413686,2147587648,1497,2,16,55558
1340665265,5808,125.3099975585937500,22.5300006866455080,35.2691001892089840,233.7445068359375000,85.2958526611328100,22.5331306457519530,28.9725303649902340,140,124,91,83,61,15224,2153787200,2157560557,2161326180,2148008749,2149841270,2151316946,2153150564,2147653732,698,2,15,8678
1340665356,5808,122.0199966430664000,22.8451004028320300,35.2869987487793000,235.2644958496093800,76.0235290527343800,22.8189296722412100,28.7840499877929700,115,120,91,84,61,15238,2154977856,2159249280,2163103515,2148035081,2150358171,2152092900,2153923474,2147728274,3547,2,16,22941
1340665567,5809,117.7500000000000000,22.9638004302978500,35.2807998657226560,237.3999023437500000,71.4328536987304700,22.9605503082275400,28.6278495788574220,100,121,91,84,61,15236,2157553581,2162698048,2166404022,2148092598,2151627465,2153902637,2155603172,2147885970,2408,2,15,741
1340665670,5806,113.6600036621093800,23.2217006683349600,35.2794990539550800,237.5339965820312500,64.3318634033203100,23.1797904968261720,28.5323791503906250,88,125,91,85,58,15240,2160220269,2165964406,2169414089,2148161133,2152944365,2155697929,2157179977,2148024960,778,2,16,24487
1340665773,5808,109.6999969482421900,23.3036994934082030,35.2801017761230500,237.1858062744140600,60.4858818054199200,23.2986202239990230,28.5000495910644530,87,127,93,84,60,15229,2163985472,2170631030,2173863405,2148261878,2154790857,2158222857,2159423643,2148235785,3520,2,16,27918
1340665875,5806,105.0100021362304700,23.4514007568359380,35.2788009643554700,236.9315032958984400,55.9764404296875000,23.4380302429199220,28.4552993774414060,80,127,91,84,60,15227,2169036452,2176318509,2178838912,2148415040,2157353920,2161497216,2162105325,2148484370,3406,2,16,42153
1340665942,5810,101.5000000000000000,23.6753005981445300,35.2835998535156250,237.0520019531250000,49.2927284240722660,23.6448192596435550,28.3661708831787100,78,127,96,86,61,15227,2173697526,2181553225,2183528429,2148551131,2159877696,2164657444,2164685961,2148725723,675,2,16,31898
1340666009,5811,98.4899978637695300,23.7572002410888670,35.2885017395019500,238.5594024658203000,46.5081214904785160,23.7310390472412100,28.2629795074462900,75,128,95,86,60,15225,2177873746,2185952676,2187274112,2148682742,2162439762,2167788434,2167108571,2148943250,1218,2,16,54077
1340666064,5805,96.2900009155273400,23.8376998901367200,35.2915000915527340,239.2187042236328000,43.2621498107910160,23.8315792083740230,28.1928005218505860,74,127,94,86,59,15224,2181664978,2190169069,2190997174,2148837046,2164889910,2170591835,2169205366,2149149092,1838,2,16,12272
1340666119,5806,94.1699981689453100,23.9864997863769530,35.2979011535644500,239.4378051757812500,38.9567909240722660,23.9650306701660160,28.1293907165527340,70,130,95,84,59,15225,2184860315,2193382939,2193559323,2148945938,2167231094,2173202331,2171063085,2149318226,2210,2,16,63989
1340666177,5808,92.3399963378906200,24.0638999938964840,35.3044013977050800,239.5549926757812500,36.1353912353515600,24.0525207519531250,28.0890293121337900,70,125,94,86,59,15226,2187812333,2196203693,2195785206,2149094628,2169414299,2175508909,2172648713,2149472219,2476,2,16,61265
1340666232,5810,90.7500000000000000,24.0974998474121100,35.3013000488281250,240.1560058593750000,34.8829307556152340,24.0913791656494140,28.0463695526123050,70,127,95,84,57,15227,2191645714,2200294244,2199430756,2149241737,2172034002,2178512795,2174806774,2149671917,2231,2,16,43844
1340666287,5805,89.2600021362304700,24.1606006622314450,35.3051986694335940,240.6065063476562500,33.0220909118652340,24.1491203308105470,28.0032997131347660,68,126,92,85,59,15222,2195245019,2203927213,2202498121,2149395355,2174652269,2181323072,2176810669,2149872457,2252,2,17,15821
1340666366,5809,87.1999969482421900,24.3255004882812500,35.3013000488281250,241.5148010253906200,28.8809700012207030,24.2776794433593750,27.9117298126220700,67,125,95,85,56,15216,2198907108,2207297124,2205019913,2149554477,2177891547,2184566281,2178872448,2150060553,2420,2,16,49055
1340666457,5807,85.5899963378906200,24.3335990905761720,35.3007011413574200,242.7337951660156200,27.2492809295654300,24.3283596038818360,27.8375396728515620,67,126,93,86,58,15213,2202642285,2210736868,2207751250,2149747885,2180926528,2187584338,2180889993,2150251026,2988,2,16,2890
1340666559,5809,82.5100021362304700,24.3913993835449220,35.2860984802246100,244.6661987304687500,25.1711006164550780,24.3929195404052730,27.7271804809570300,66,126,93,85,58,15201,2212007835,2220632758,2216758226,2150313344,2188208749,2195214272,2186231899,2150757403,248,2,16,30397
1340666614,5810,79.9800033569336000,24.5209007263183600,35.2946014404296900,245.8939056396484400,21.2842998504638670,24.5137405395507800,27.6258697509765620,65,126,92,86,58,15194,2217845147,2225641014,2220665499,2150710235,2194538112,2201394733,2190312128,2151169554,337,2,16,57942
1340666669,5807,77.5100021362304700,24.6688995361328120,35.2901000976562500,245.5912933349609400,16.9095001220703120,24.6498298645019530,27.5853004455566400,65,125,95,86,57,15191,2224856493,2232819693,2227067968,2151254272,2200068626,2206806208,2193959140,2151556562,822,2,16,20960
1340666724,5808,75.4300003051757800,24.7080993652343750,35.2891998291015600,245.8123016357422000,15.3032903671264650,24.6998195648193360,27.5560894012451170,65,129,95,88,58,15195,2231827547,2240206646,2233915830,2151810230,2206072091,2212875373,2198096192,2152018285,1421,2,17,23858
1340666779,5808,73.3700027465820300,24.7441005706787100,35.2821006774902340,245.9535980224609400,14.0996103286743160,24.7372894287109380,27.5352096557617200,65,129,95,86,56,15193,2237560585,2245762944,2238312292,2152286674,2212703049,2219260352,2202209901,2152433581,2064,1,17,42084
1340666858,5806,69.9800033569336000,24.8050003051757800,35.2770004272460940,245.7460937500000000,11.1361999511718750,24.8295803070068360,27.5078105926513670,63,126,97,85,59,15193,2251473453,2259898413,2251310171,2153623277,2225711634,2231935369,2210818304,2153392009,1518,1,17,39819
1340666913,5815,67.4400024414062500,25.0421009063720700,35.2798995971679700,244.9662933349609400,4.7140979766845700,25.0297508239746100,27.4630908966064450,60,127,96,87,56,15180,2258132196,2266281060,2256795044,2154590756,2234948534,2240200484,2215775670,2153969161,1793,1,17,24759
1340666968,5811,65.3399963378906200,25.0969009399414060,35.2683982849121100,244.5122985839843800,2.3615241050720215,25.1031398773193360,27.4541606903076170,60,128,95,87,57,15192,2265592374,2273726500,2263453412,2155547382,2244849398,2249244598,2221448146,2154602240,1808,2,16,39304
1340667023,5812,63.2999992370605500,25.2577991485595700,35.2244987487793000,243.7467956542968800,-1.7288539409637451,25.2308197021484380,27.4372901916503900,59,128,94,85,56,15193,2270810340,2278622226,2267613485,2156568438,2253691401,2257120758,2226249280,2155186971,2019,2,16,62699
1340667078,5808,61.8600006103515600,25.2952995300292970,35.2095985412597660,243.1403045654297000,-3.6587300300598145,25.2910900115966800,27.4401893615722660,58,126,95,85,57,15186,2277452077,2285577956,2274435264,2157580617,2261361892,2264199213,2230839744,2155788470,1739,1,16,54610
1340667168,5809,59.3800010681152340,25.4533004760742200,35.1618995666503900,241.8764953613281200,-8.7553024291992190,25.4503707885742200,27.4332809448242200,57,126,96,87,58,15184,2289918180,2298670948,2286429476,2159399094,2278220672,2279573504,2240312320,2156811172,1776,2,16,44043
1340667223,5810,57.3600006103515600,25.6597003936767580,35.0909996032714840,240.0668945312500000,-14.1042404174804690,25.6177005767822270,27.4476299285888670,56,122,93,84,57,15183,2303625682,2313517430,2300405174,2161675126,2295975570,2296563611,2251772342,2158221412,2188,2,16,49330
1340667278,5807,56.3600006103515600,25.7385997772216800,35.0651016235351560,238.6623992919922000,-17.4085197448730470,25.7211608886718750,27.4694595336914060,56,122,94,85,55,15191,2271834313,2278062518,2266241444,2158386660,2267944694,2266169984,2229084891,2155824530,2336,2,16,50436
1340667500,5809,53.9300003051757800,25.7418003082275400,35.0642013549804700,236.6900939941406200,-18.1942195892334000,25.7457809448242200,27.5480594635009770,55,122,94,83,55,15204,2289318710,2297308928,2285434514,2161707401,2288479808,2285326034,2241576155,2157394386,2800,2,16,21853
1340667555,5805,51.8199996948242200,25.7451000213623050,35.0612983703613300,236.4839019775390600,-18.3635692596435550,25.7510795593261720,27.5551204681396500,55,120,90,86,57,15205,2314929380,2325336813,2313057965,2166007113,2319986532,2316084086,2262588141,2159938121,3211,1,17,29511
1340667610,5802,49.4199981689453100,25.7444992065429700,35.0595016479492200,236.4683990478515600,-18.3606204986572270,25.7509899139404300,27.5559196472167970,54,119,93,85,58,15203,2306902518,2314586322,2301938660,2166893632,2320876470,2313758985,2259020214,2159702784,3323,2,17,43251
1340667665,5805,46.8800010681152340,25.7437992095947270,35.0587997436523440,236.3813018798828000,-18.2003192901611330,25.7459697723388670,27.5619392395019530,53,120,88,84,54,15210,2284414162,2289366966,2277942656,2164848740,2300359616,2291210157,2242207954,2158059090,3211,2,17,42467
1340667720,5808,44.2099990844726560,25.7437992095947270,35.0588989257812500,236.4385070800781200,-18.3189201354980470,25.7496795654296880,27.5577201843261720,54,120,92,84,59,15208,2289704420,2295123794,2284027830,2167423881,2314060589,2303611346,2250099355,2159247780,3060,1,16,8018
1340667798,5806,39.8800010681152340,25.7469005584716800,35.0581016540527340,236.5605926513672000,-18.3221702575683600,25.7497806549072270,27.5523395538330080,53,121,92,84,52,15201,2360665024,2374147236,2364737334,2188764461,2398590628,2383520393,2303435346,2167869988,2928,2,16,46377
1340667853,5806,36.3699989318847660,25.7481002807617200,35.0583000183105500,236.4976959228515600,-18.5117797851562500,25.7557296752929700,27.5526695251464840,52,120,89,83,53,15206,2387615689,2401990244,2392452672,2200316982,2453597988,2434138130,2336085467,2172883492,2989,1,16,12546
1340667908,5809,33.0299987792968750,25.7504005432128900,35.0573997497558600,236.5211029052734400,-18.6020698547363280,25.7585506439209000,27.5506000518798830,51,119,93,83,59,15209,2408332205,2424155364,2416387163,2214961737,2486500845,2463238025,2355143716,2177353188,3068,2,16,19628
1340667963,5809,29.9400005340576170,25.7528991699218750,35.0573997497558600,236.7187957763672000,-18.7401504516601560,25.7628803253173830,27.5401802062988280,51,117,93,85,57,15206,2407453814,2422313837,2415400429,2222114578,2492676288,2465775808,2355411136,2179000292,2995,1,17,60114
1340668018,5808,26.9699993133544920,25.7556991577148440,35.0573005676269500,236.8161010742187500,-18.8366298675537100,25.7658996582031250,27.5345497131347660,52,119,93,85,51,15193,2437037586,2454478418,2449562614,2244664182,2542152310,2510369956,2383331483,2185862482,2856,1,16,38018